Spokane Fairchild, WA

9:25 PM PDT on April 29, 2017 (GMT -0700)
Fairchild Air Force Base

Weather History for KSKA - January, 2013

Change the Weather History Date:

Wednesday, January 2, 2013

  Actual Average Record
Temperature  
Mean Temperature 19 °F -  
Max Temperature 24 °F 32 °F 46 °F (2003)
Min Temperature 14 °F 22 °F 2 °F (2009)
Degree Days  
Heating Degree Days 46    
Moisture  
Dew Point 21 °F    
Average Humidity 100    
Maximum Humidity 100    
Minimum Humidity 93    
Precipitation  
Precipitation 0.00 in - - ()
Snow  
Snow 0.00 in - - ()
Snow Depth 7.00 in    
Sea Level Pressure  
Sea Level Pressure 30.52 in    
Wind  
Wind Speed 4 mph (NNE)    
Max Wind Speed 8 mph    
Max Gust Speed -    
Visibility 10 miles    
Events Snow    
Averages and records for this station are not official NWS values.
T = Trace of Precipitation, MM = Missing Value Source: NWS Daily Summary

Daily Weather History Graph

Daily Weather History Graph

Search for Another Location

Airport or City:

Trip Planner

Search our weather history database for the weather conditions in past years. The results will help you decide how hot, cold, wet, or windy it might be!

Date:

Astronomy

Jan. 02, 2013 Rise Set
Actual Time 7:38 AM PST 4:11 PM PST
Civil Twilight 7:03 AM PST 4:46 PM PST
Nautical Twilight 6:24 AM PST 5:25 PM PST
Astronomical Twilight 5:46 AM PST 6:03 PM PST
Moon 10:14 PM PST (1/2) 9:59 AM PST (1/2)
Length of Visible Light 9h 43m
Length of Day
8h 32m
Waning Gibbous, 74% of the Moon is Illuminated
Jan 2
Waning Gibbous
Jan 4
Last Quarter
Jan 11
New
Jan 18
First Quarter
Jan 26
Full

Hourly Weather History & Observations

Time (PST) Temp. Windchill Dew Point Humidity Pressure Visibility Wind Dir Wind Speed Gust Speed Precip Events Conditions
12:09 AM 21.2 °F - 21.2 °F 100% 30.53 in 10.0 mi NNW 2.3 mph - N/A Snow Light Snow
12:29 AM 21.2 °F 16.4 °F 21.2 °F 100% 30.52 in 10.0 mi NNW 3.5 mph - N/A   Overcast
12:46 AM 21.2 °F - 21.2 °F 100% 30.51 in 10.0 mi WNW 1.2 mph - N/A Snow Light Snow
12:58 AM 21.0 °F 16.2 °F 21.0 °F 100% 30.63 in 10.0 mi NNW 3.5 mph - 0.00 in Snow Light Snow
1:02 AM 21.2 °F 14.9 °F 21.2 °F 100% 30.51 in 10.0 mi NNE 4.6 mph - N/A   Overcast
1:12 AM 21.2 °F 13.6 °F 21.2 °F 100% 30.51 in 10.0 mi North 5.8 mph - N/A Snow Light Snow
1:41 AM 21.2 °F 16.4 °F 21.2 °F 100% 30.52 in 10.0 mi North 3.5 mph - N/A   Overcast
1:51 AM 21.2 °F 14.9 °F 21.2 °F 100% 30.52 in 10.0 mi NNE 4.6 mph - N/A Snow Light Snow
1:58 AM 21.0 °F 13.4 °F 21.0 °F 100% 30.64 in 10.0 mi North 5.8 mph - 0.00 in Snow Light Snow
2:00 AM 21.2 °F 16.4 °F 21.2 °F 100% 30.52 in 10.0 mi NNE 3.5 mph - N/A   Overcast
2:46 AM 21.2 °F - 21.2 °F 100% 30.52 in 10.0 mi NNE 2.3 mph - N/A Snow Light Snow
2:58 AM 21.0 °F 14.6 °F 21.0 °F 100% 30.64 in 10.0 mi NNE 4.6 mph - 0.00 in Snow Light Snow
3:06 AM 21.2 °F 13.6 °F 21.2 °F 100% 30.52 in 10.0 mi NNE 5.8 mph - N/A   Overcast
3:58 AM 21.0 °F 14.6 °F 21.0 °F 100% 30.64 in 10.0 mi NNE 4.6 mph - 0.00 in   Overcast
4:58 AM 21.0 °F 14.6 °F 21.0 °F 100% 30.62 in 10.0 mi NNE 4.6 mph - N/A   Overcast
5:58 AM 21.2 °F 14.9 °F 21.2 °F 100% 30.61 in 10.0 mi North 4.6 mph - N/A   Overcast
6:50 AM 21.2 °F 14.9 °F 21.2 °F 100% 30.49 in 10.0 mi North 4.6 mph - N/A   Overcast
6:51 AM 21.2 °F 14.9 °F 21.2 °F 100% 30.49 in 10.0 mi North 4.6 mph - N/A Snow Light Snow
6:58 AM 21.0 °F 16.2 °F 21.0 °F 100% 30.61 in 10.0 mi North 3.5 mph - 0.00 in Snow Light Snow
7:00 AM 21.2 °F 14.9 °F 21.2 °F 100% 30.49 in 10.0 mi NNE 4.6 mph - N/A   Overcast
7:58 AM 21.4 °F 15.1 °F 21.4 °F 100% 30.61 in 10.0 mi North 4.6 mph - 0.00 in   Overcast
8:58 AM 21.7 °F 15.5 °F 21.7 °F 100% 30.62 in 9.0 mi North 4.6 mph - N/A   Overcast
9:25 AM 23.0 °F 18.4 °F 23.0 °F 100% 30.50 in 10.0 mi NNE 3.5 mph - N/A Snow Light Snow
9:35 AM 23.0 °F 18.4 °F 23.0 °F 100% 30.50 in 10.0 mi NNE 3.5 mph - N/A   Overcast
9:58 AM 22.5 °F 15.1 °F 23.0 °F 100% 30.62 in 10.0 mi NE 5.8 mph - N/A   Overcast
10:15 AM 23.0 °F 15.8 °F 23.0 °F 100% 30.51 in 10.0 mi NE 5.8 mph - N/A   Overcast
10:45 AM 23.0 °F 18.4 °F 23.0 °F 100% 30.51 in 10.0 mi NE 3.5 mph - N/A   Overcast
10:58 AM 22.8 °F - 22.8 °F 100% 30.62 in 10.0 mi NE 1.2 mph - 0.00 in   Overcast
11:58 AM 23.9 °F 18.0 °F 23.9 °F 100% 30.61 in 10.0 mi NNE 4.6 mph - N/A   Overcast
12:19 PM 24.8 °F 17.9 °F 24.8 °F 100% 30.48 in 10.0 mi NE 5.8 mph - N/A   Overcast
12:51 PM 24.8 °F 20.5 °F 23.0 °F 93% 30.47 in 10.0 mi ENE 3.5 mph - N/A   Overcast
12:54 PM 24.8 °F 20.5 °F 23.0 °F 93% 30.47 in 10.0 mi NE 3.5 mph - N/A   Overcast
12:58 PM 24.3 °F 19.9 °F 23.9 °F 99% 30.58 in 10.0 mi NNE 3.5 mph - 0.00 in   Overcast
1:03 PM 24.8 °F - 23.0 °F 93% 30.47 in 10.0 mi NNE 2.3 mph - N/A   Overcast
1:07 PM 24.8 °F - 24.8 °F 100% 30.47 in 10.0 mi NNE 2.3 mph - N/A   Overcast
1:21 PM 24.8 °F 20.5 °F 23.0 °F 93% 30.47 in 10.0 mi ENE 3.5 mph - N/A   Overcast
1:58 PM 24.3 °F 17.3 °F 24.1 °F 99% 30.58 in 10.0 mi NNE 5.8 mph - 0.00 in   Overcast
2:47 PM 24.8 °F 17.9 °F 24.8 °F 100% 30.47 in 10.0 mi NNE 5.8 mph - N/A   Overcast
2:49 PM 24.8 °F 16.9 °F 24.8 °F 100% 30.47 in 10.0 mi NNE 6.9 mph - N/A   Overcast
2:58 PM 24.3 °F 17.3 °F 24.3 °F 100% 30.58 in 10.0 mi NNE 5.8 mph - 0.00 in   Overcast
3:10 PM 24.8 °F 16.9 °F 24.8 °F 100% 30.47 in 10.0 mi NE 6.9 mph - N/A   Overcast
3:19 PM 24.8 °F 16.9 °F 24.8 °F 100% 30.47 in 10.0 mi NE 6.9 mph - N/A   Overcast
3:58 PM 24.3 °F 16.3 °F 24.3 °F 100% 30.58 in 10.0 mi NNE 6.9 mph - 0.00 in   Overcast
4:58 PM 23.5 °F 16.4 °F 23.5 °F 100% 30.58 in 10.0 mi North 5.8 mph - N/A   Overcast
5:19 PM 21.2 °F 13.6 °F 21.2 °F 100% 30.45 in 10.0 mi North 5.8 mph - N/A   Mostly Cloudy
5:24 PM 21.2 °F 13.6 °F 21.2 °F 100% 30.46 in 10.0 mi North 5.8 mph - N/A   Scattered Clouds
5:40 PM 21.2 °F 13.6 °F 21.2 °F 100% 30.45 in 10.0 mi North 5.8 mph - N/A   Clear
5:58 PM 21.2 °F 13.6 °F 21.2 °F 100% 30.57 in 10.0 mi North 5.8 mph - 0.00 in   Clear
6:55 PM 19.4 °F 11.5 °F 19.4 °F 100% 30.44 in 10.0 mi North 5.8 mph - N/A Snow Light Snow
6:58 PM 19.9 °F 12.1 °F 19.9 °F 100% 30.56 in 10.0 mi North 5.8 mph - 0.00 in Snow Light Snow
7:13 PM 19.4 °F 10.4 °F 19.4 °F 100% 30.44 in 10.0 mi North 6.9 mph - N/A   Clear
7:20 PM 19.4 °F 11.5 °F 19.4 °F 100% 30.44 in 10.0 mi North 5.8 mph - N/A Snow Light Snow
7:30 PM 19.4 °F 10.4 °F 19.4 °F 100% 30.43 in 10.0 mi North 6.9 mph - N/A   Clear
7:38 PM 19.4 °F 9.5 °F 19.4 °F 100% 30.43 in 10.0 mi North 8.1 mph - N/A Snow Light Snow
7:58 PM 18.1 °F 8.9 °F 18.1 °F 100% 30.56 in 10.0 mi North 6.9 mph - 0.00 in Snow Light Snow
7:59 PM 17.6 °F 7.3 °F 17.6 °F 100% 30.43 in 10.0 mi North 8.1 mph - N/A   Clear
8:58 PM 17.2 °F 11.9 °F 17.2 °F 100% 30.55 in 10.0 mi North 3.5 mph - 0.00 in   Clear
9:23 PM 17.6 °F 12.3 °F 17.6 °F 100% 30.42 in 2.5 mi Variable 3.5 mph - N/A   Clear
9:28 PM 17.6 °F 12.3 °F 17.6 °F 100% 30.42 in 2.0 mi NNE 3.5 mph - N/A   Clear
9:33 PM 17.6 °F 10.7 °F 17.6 °F 100% 30.41 in 6.0 mi NNE 4.6 mph - N/A   Clear
9:58 PM 15.8 °F 8.6 °F 15.8 °F 100% 30.55 in 10.0 mi NNE 4.6 mph - N/A   Clear
10:58 PM 17.2 °F 7.8 °F 17.2 °F 100% 30.53 in 10.0 mi NNE 6.9 mph - N/A   Clear
11:23 PM 14.0 °F 3.9 °F 14.0 °F 100% 30.40 in 10.0 mi NNE 6.9 mph - N/A Snow Light Snow
11:44 PM 15.8 °F 6.1 °F 15.8 °F 100% 30.39 in 10.0 mi North 6.9 mph - N/A   Clear
11:58 PM 16.0 °F 7.4 °F 16.0 °F 100% 30.52 in 10.0 mi North 5.8 mph - 0.00 in   Clear